| time (UTC) | temp C | wind direction | speed KPH | gust KPH | rain 1hr cm | rain 24hr cm | rain mn cm | humidity % | barometer mb |
| 20260504050352 | 3 | 199 | 0.0 | 0.0 | 0.00 | 0.00 | 0.00 | 84 | 1013.4 |
| 20260504045849 | 3 | 201 | 0.0 | 0.0 | 0.00 | 0.00 | 0.00 | 83 | 1013.3 |
| 20260504045349 | 3 | 199 | 0.0 | 0.0 | 0.00 | 0.00 | 0.00 | 82 | 1013.4 |
| 20260504044847 | 4 | 198 | 0.0 | 0.0 | 0.00 | 0.00 | 0.00 | 82 | 1013.5 |
| 20260504044344 | 4 | 203 | 0.0 | 0.0 | 0.00 | 0.00 | 0.00 | 81 | 1013.3 |
| 20260504043841 | 5 | 199 | 0.0 | 0.0 | 0.00 | 0.00 | 0.00 | 79 | 1013.3 |
| 20260504043338 | 5 | 199 | 0.0 | 0.0 | 0.00 | 0.00 | 0.00 | 77 | 1013.5 |
| 20260504042835 | 5 | 198 | 0.0 | 0.0 | 0.00 | 0.00 | 0.00 | 74 | 1013.4 |
| 20260504042331 | 5 | 201 | 0.0 | 1.6 | 0.00 | 0.00 | 0.00 | 76 | 1013.3 |
| 20260504041828 | 5 | 196 | 0.0 | 0.0 | 0.00 | 0.00 | 0.00 | 76 | 1013.2 |
| 20260504041324 | 5 | 201 | 0.0 | 0.0 | 0.00 | 0.00 | 0.00 | 77 | 1013.3 |
| 20260504040820 | 5 | 193 | 1.6 | 1.6 | 0.00 | 0.00 | 0.00 | 80 | 1013.2 |
| 20260504040318 | 5 | 202 | 0.0 | 0.0 | 0.00 | 0.00 | 0.00 | 80 | 1013.4 |
| 20260504035814 | 5 | 201 | 0.0 | 0.0 | 0.00 | 0.00 | 0.00 | 79 | 1013.3 |
| 20260504035311 | 5 | 206 | 0.0 | 1.6 | 0.00 | 0.00 | 0.00 | 81 | 1013.1 |
| 20260504034809 | 5 | 200 | 0.0 | 0.0 | 0.00 | 0.00 | 0.00 | 80 | 1013.2 |
| 20260504034306 | 4 | 207 | 1.6 | 1.6 | 0.00 | 0.00 | 0.00 | 82 | 1013.2 |
| 20260504033803 | 4 | 215 | 3.2 | 3.2 | 0.00 | 0.00 | 0.00 | 83 | 1013.3 |
| 20260504033301 | 4 | 197 | 0.0 | 0.0 | 0.00 | 0.00 | 0.00 | 81 | 1013.4 |
| 20260504032757 | 5 | 200 | 0.0 | 0.0 | 0.00 | 0.00 | 0.00 | 82 | 1013.4 |
| 20260504032254 | 5 | 201 | 0.0 | 0.0 | 0.00 | 0.00 | 0.00 | 81 | 1013.4 |
| 20260504031751 | 5 | 202 | 0.0 | 0.0 | 0.00 | 0.00 | 0.00 | 80 | 1013.4 |
| 20260504031249 | 5 | 177 | 0.0 | 1.6 | 0.00 | 0.00 | 0.00 | 80 | 1013.1 |
| 20260504030744 | 5 | 202 | 0.0 | 0.0 | 0.00 | 0.00 | 0.00 | 80 | 1012.9 |
| 20260504030242 | 5 | 200 | 0.0 | 0.0 | 0.00 | 0.00 | 0.00 | 79 | 1012.9 |
| 20260504025738 | 5 | 199 | 0.0 | 0.0 | 0.00 | 0.00 | 0.00 | 77 | 1013.0 |
| 20260504025235 | 5 | 197 | 0.0 | 0.0 | 0.00 | 0.00 | 0.00 | 77 | 1013.1 |
| 20260504024732 | 5 | 207 | 1.6 | 1.6 | 0.00 | 0.00 | 0.00 | 78 | 1013.1 |
| 20260504024228 | 5 | 200 | 0.0 | 0.0 | 0.00 | 0.00 | 0.00 | 77 | 1013.0 |
| 20260504023725 | 5 | 202 | 0.0 | 0.0 | 0.00 | 0.00 | 0.00 | 76 | 1013.0 |
| 20260504023221 | 5 | 199 | 0.0 | 0.0 | 0.00 | 0.00 | 0.00 | 76 | 1013.2 |
| 20260504022718 | 5 | 201 | 0.0 | 0.0 | 0.00 | 0.00 | 0.00 | 76 | 1013.3 |
| 20260504022214 | 6 | 198 | 0.0 | 0.0 | 0.00 | 0.00 | 0.00 | 74 | 1013.1 |
| 20260504021712 | 6 | 202 | 0.0 | 0.0 | 0.00 | 0.00 | 0.00 | 73 | 1013.1 |
| 20260504021208 | 6 | 202 | 0.0 | 0.0 | 0.00 | 0.00 | 0.00 | 73 | 1013.2 |
| 20260504020705 | 6 | 203 | 0.0 | 0.0 | 0.00 | 0.00 | 0.00 | 73 | 1013.2 |
| 20260504020201 | 6 | 201 | 0.0 | 0.0 | 0.00 | 0.00 | 0.00 | 72 | 1013.0 |
| 20260504015658 | 7 | 200 | 0.0 | 0.0 | 0.00 | 0.00 | 0.00 | 71 | 1013.1 |
| 20260504015154 | 7 | 195 | 0.0 | 0.0 | 0.00 | 0.00 | 0.00 | 71 | 1013.1 |
| 20260504014650 | 6 | 201 | 0.0 | 0.0 | 0.00 | 0.00 | 0.00 | 69 | 1013.0 |
| 20260504014147 | 7 | 202 | 0.0 | 0.0 | 0.00 | 0.00 | 0.00 | 70 | 1013.0 |
| 20260504013645 | 7 | 205 | 0.0 | 0.0 | 0.00 | 0.00 | 0.00 | 69 | 1013.1 |
| 20260504013142 | 7 | 203 | 0.0 | 0.0 | 0.00 | 0.00 | 0.00 | 69 | 1013.0 |
| 20260504012639 | 7 | 201 | 0.0 | 0.0 | 0.00 | 0.00 | 0.00 | 70 | 1012.8 |
| 20260504012137 | 7 | 200 | 0.0 | 0.0 | 0.00 | 0.00 | 0.00 | 69 | 1012.8 |
| 20260504011633 | 7 | 201 | 0.0 | 0.0 | 0.00 | 0.00 | 0.00 | 66 | 1012.8 |
| 20260504011130 | 7 | 200 | 0.0 | 0.0 | 0.00 | 0.00 | 0.00 | 65 | 1012.7 |
| 20260504010626 | 8 | 202 | 0.0 | 0.0 | 0.00 | 0.00 | 0.00 | 64 | 1012.8 |
| 20260504010122 | 8 | 200 | 0.0 | 0.0 | 0.00 | 0.00 | 0.00 | 64 | 1012.8 |
| 20260504005619 | 8 | 198 | 0.0 | 0.0 | 0.00 | 0.00 | 0.00 | 63 | 1012.8 |
| 20260504005116 | 8 | 201 | 0.0 | 0.0 | 0.00 | 0.00 | 0.00 | 62 | 1012.8 |
| 20260504004614 | 9 | 201 | 0.0 | 0.0 | 0.00 | 0.00 | 0.00 | 59 | 1012.6 |
| 20260504004111 | 10 | 199 | 0.0 | 0.0 | 0.00 | 0.00 | 0.00 | 55 | 1012.5 |
| 20260504003607 | 10 | 201 | 0.0 | 0.0 | 0.00 | 0.00 | 0.00 | 54 | 1012.7 |
| 20260504003104 | 11 | 202 | 0.0 | 0.0 | 0.00 | 0.00 | 0.00 | 52 | 1012.7 |
| 20260504002600 | 11 | 205 | 0.0 | 0.0 | 0.00 | 0.00 | 0.00 | 47 | 1012.4 |
| 20260504002058 | 11 | 217 | 3.2 | 3.2 | 0.00 | 0.00 | 0.00 | 47 | 1012.3 |
| 20260504001555 | 12 | 202 | 0.0 | 0.0 | 0.00 | 0.00 | 0.00 | 48 | 1012.3 |
| 20260504001051 | 12 | 207 | 1.6 | 1.6 | 0.00 | 0.00 | 0.00 | 43 | 1012.3 |
| 20260504000549 | 12 | 224 | 4.8 | 4.8 | 0.00 | 0.00 | 0.00 | 43 | 1012.2 |
| 20260504000046 | 12 | 202 | 0.0 | 0.0 | 0.00 | 0.00 | 0.00 | 43 | 1012.3 |
| 20260503235544 | 13 | 221 | 1.6 | 3.2 | 0.00 | 0.00 | 0.00 | 44 | 1012.2 |
| 20260503235041 | 13 | 226 | 4.8 | 4.8 | 0.00 | 0.00 | 0.00 | 42 | 1012.1 |
| 20260503234538 | 13 | 218 | 3.2 | 3.2 | 0.00 | 0.00 | 0.00 | 41 | 1012.4 |
| 20260503234037 | 13 | 243 | 6.4 | 9.7 | 0.00 | 0.00 | 0.00 | 41 | 1012.1 |
| 20260503233533 | 13 | 216 | 8.0 | 9.7 | 0.00 | 0.00 | 0.00 | 40 | 1012.3 |
| 20260503233029 | 13 | 210 | 3.2 | 3.2 | 0.00 | 0.00 | 0.00 | 43 | 1012.1 |
| 20260503232526 | 13 | 225 | 4.8 | 8.0 | 0.00 | 0.00 | 0.00 | 41 | 1012.2 |
| 20260503232023 | 13 | 218 | 9.7 | 14.5 | 0.00 | 0.00 | 0.00 | 39 | 1012.2 |
| 20260503231521 | 14 | 228 | 8.0 | 11.3 | 0.00 | 0.00 | 0.00 | 39 | 1012.1 |
| 20260503231018 | 14 | 203 | 14.5 | 17.7 | 0.00 | 0.00 | 0.00 | 38 | 1012.3 |
| 20260503230514 | 13 | 268 | 11.3 | 16.1 | 0.00 | 0.00 | 0.00 | 38 | 1012.0 |
| 20260503230012 | 14 | 201 | 0.0 | 0.0 | 0.00 | 0.00 | 0.00 | 38 | 1012.1 |
| 20260503225508 | 14 | 228 | 8.0 | 11.3 | 0.00 | 0.00 | 0.00 | 36 | 1012.1 |
| 20260503225003 | 15 | 242 | 4.8 | 8.0 | 0.00 | 0.00 | 0.00 | 37 | 1012.0 |
| 20260503224501 | 15 | 191 | 8.0 | 9.7 | 0.00 | 0.00 | 0.00 | 37 | 1012.1 |
| 20260503223959 | 15 | 219 | 8.0 | 9.7 | 0.00 | 0.00 | 0.00 | 37 | 1012.2 |
| 20260503223457 | 15 | 229 | 9.7 | 12.9 | 0.00 | 0.00 | 0.00 | 36 | 1012.0 |
| 20260503222952 | 15 | 247 | 4.8 | 8.0 | 0.00 | 0.00 | 0.00 | 38 | 1012.1 |
| 20260503222451 | 15 | 242 | 8.0 | 9.7 | 0.00 | 0.00 | 0.00 | 38 | 1011.9 |
| 20260503221948 | 15 | 236 | 6.4 | 8.0 | 0.00 | 0.00 | 0.00 | 36 | 1012.2 |
| 20260503221446 | 15 | 218 | 11.3 | 12.9 | 0.00 | 0.00 | 0.00 | 35 | 1012.0 |
| 20260503220943 | 15 | 210 | 19.3 | 24.1 | 0.00 | 0.00 | 0.00 | 34 | 1012.3 |
| 20260503220439 | 15 | 220 | 8.0 | 17.7 | 0.00 | 0.00 | 0.00 | 33 | 1011.9 |
| 20260503215936 | 15 | 198 | 17.7 | 22.5 | 0.00 | 0.00 | 0.00 | 34 | 1012.2 |
| 20260503215433 | 15 | 182 | 12.9 | 17.7 | 0.00 | 0.00 | 0.00 | 35 | 1012.2 |
| 20260503214931 | 15 | 204 | 9.7 | 11.3 | 0.00 | 0.00 | 0.00 | 37 | 1012.0 |
| 20260503214429 | 15 | 224 | 11.3 | 11.3 | 0.00 | 0.00 | 0.00 | 36 | 1012.2 |
| 20260503213925 | 15 | 213 | 12.9 | 16.1 | 0.00 | 0.00 | 0.00 | 35 | 1012.3 |
| 20260503213424 | 16 | 195 | 16.1 | 20.9 | 0.00 | 0.00 | 0.00 | 35 | 1012.1 |
| 20260503212920 | 16 | 218 | 4.8 | 11.3 | 0.00 | 0.00 | 0.00 | 34 | 1011.9 |
| 20260503212417 | 16 | 261 | 8.0 | 11.3 | 0.00 | 0.00 | 0.00 | 37 | 1012.0 |
| 20260503211915 | 16 | 217 | 11.3 | 14.5 | 0.00 | 0.00 | 0.00 | 35 | 1012.1 |
| 20260503211412 | 15 | 231 | 12.9 | 16.1 | 0.00 | 0.00 | 0.00 | 35 | 1012.0 |
| 20260503210907 | 15 | 234 | 12.9 | 14.5 | 0.00 | 0.00 | 0.00 | 36 | 1012.1 |
| 20260503210405 | 15 | 232 | 8.0 | 9.7 | 0.00 | 0.00 | 0.00 | 34 | 1012.2 |
| 20260503205904 | 15 | 190 | 3.2 | 3.2 | 0.00 | 0.00 | 0.00 | 35 | 1012.2 |
| 20260503205401 | 15 | 251 | 12.9 | 14.5 | 0.00 | 0.00 | 0.00 | 33 | 1012.0 |
| 20260503204858 | 15 | 219 | 9.7 | 16.1 | 0.00 | 0.00 | 0.00 | 33 | 1012.2 |
| 20260503204355 | 15 | 202 | 9.7 | 14.5 | 0.00 | 0.00 | 0.00 | 36 | 1011.9 |
| 20260503203852 | 15 | 217 | 8.0 | 12.9 | 0.00 | 0.00 | 0.00 | 32 | 1012.2 |
| 20260503203349 | 15 | 219 | 12.9 | 14.5 | 0.00 | 0.00 | 0.00 | 34 | 1012.1 |
| 20260503202846 | 15 | 203 | 9.7 | 14.5 | 0.00 | 0.00 | 0.00 | 37 | 1012.1 |
| 20260503202345 | 15 | 205 | 16.1 | 20.9 | 0.00 | 0.00 | 0.00 | 36 | 1012.3 |
| 20260503201843 | 16 | 206 | 9.7 | 14.5 | 0.00 | 0.00 | 0.00 | 33 | 1012.2 |
| 20260503201339 | 16 | 249 | 11.3 | 12.9 | 0.00 | 0.00 | 0.00 | 35 | 1012.2 |
| 20260503200837 | 16 | 205 | 9.7 | 14.5 | 0.00 | 0.00 | 0.00 | 36 | 1012.2 |
| 20260503200332 | 15 | 213 | 9.7 | 14.5 | 0.00 | 0.00 | 0.00 | 33 | 1012.1 |
| 20260503195830 | 15 | 225 | 11.3 | 14.5 | 0.00 | 0.00 | 0.00 | 35 | 1012.1 |
| 20260503195326 | 15 | 234 | 9.7 | 12.9 | 0.00 | 0.00 | 0.00 | 36 | 1012.3 |
| 20260503194824 | 15 | 221 | 12.9 | 20.9 | 0.00 | 0.00 | 0.00 | 35 | 1012.3 |
| 20260503194319 | 15 | 173 | 6.4 | 8.0 | 0.00 | 0.00 | 0.00 | 37 | 1012.6 |
| 20260503193816 | 15 | 200 | 20.9 | 22.5 | 0.00 | 0.00 | 0.00 | 35 | 1012.6 |
| 20260503193312 | 15 | 198 | 11.3 | 16.1 | 0.00 | 0.00 | 0.00 | 36 | 1012.7 |
| 20260503192808 | 15 | 213 | 4.8 | 8.0 | 0.00 | 0.00 | 0.00 | 36 | 1012.8 |
| 20260503192305 | 15 | 204 | 14.5 | 17.7 | 0.00 | 0.00 | 0.00 | 36 | 1012.9 |
| 20260503191800 | 14 | 220 | 19.3 | 22.5 | 0.00 | 0.00 | 0.00 | 36 | 1012.7 |
| 20260503191257 | 15 | 285 | 8.0 | 12.9 | 0.00 | 0.00 | 0.00 | 38 | 1013.0 |
| 20260503190754 | 15 | 221 | 12.9 | 16.1 | 0.00 | 0.00 | 0.00 | 39 | 1012.9 |
| 20260503190250 | 15 | 239 | 12.9 | 17.7 | 0.00 | 0.00 | 0.00 | 36 | 1012.9 |
| 20260503185748 | 15 | 214 | 11.3 | 14.5 | 0.00 | 0.00 | 0.00 | 37 | 1013.1 |
| 20260503185243 | 15 | 171 | 9.7 | 11.3 | 0.00 | 0.00 | 0.00 | 36 | 1013.2 |
| 20260503184738 | 15 | 232 | 11.3 | 12.9 | 0.00 | 0.00 | 0.00 | 38 | 1013.1 |
| 20260503184235 | 15 | 220 | 12.9 | 14.5 | 0.00 | 0.00 | 0.00 | 36 | 1013.3 |
| 20260503183731 | 15 | 216 | 6.4 | 9.7 | 0.00 | 0.00 | 0.00 | 36 | 1013.2 |
| 20260503183229 | 15 | 218 | 16.1 | 22.5 | 0.00 | 0.00 | 0.00 | 44 | 1013.5 |
| 20260503182726 | 14 | 217 | 6.4 | 8.0 | 0.00 | 0.00 | 0.00 | 38 | 1013.5 |
| 20260503182225 | 14 | 256 | 11.3 | 12.9 | 0.00 | 0.00 | 0.00 | 38 | 1013.4 |
| 20260503181721 | 14 | 225 | 14.5 | 16.1 | 0.00 | 0.00 | 0.00 | 37 | 1013.4 |
| 20260503181218 | 15 | 185 | 9.7 | 11.3 | 0.00 | 0.00 | 0.00 | 35 | 1013.3 |
| 20260503180715 | 15 | 217 | 14.5 | 16.1 | 0.00 | 0.00 | 0.00 | 37 | 1013.5 |
| 20260503180213 | 15 | 102 | 8.0 | 12.9 | 0.00 | 0.00 | 0.00 | 34 | 1013.7 |
| 20260503175710 | 15 | 174 | 6.4 | 9.7 | 0.00 | 0.00 | 0.00 | 35 | 1013.5 |
| 20260503175208 | 14 | 215 | 1.6 | 3.2 | 0.00 | 0.00 | 0.00 | 35 | 1013.6 |
| 20260503174703 | 15 | 238 | 8.0 | 11.3 | 0.00 | 0.00 | 0.00 | 41 | 1013.5 |
| 20260503174201 | 15 | 213 | 8.0 | 11.3 | 0.00 | 0.00 | 0.00 | 36 | 1013.4 |
| 20260503173656 | 14 | 238 | 22.5 | 27.4 | 0.00 | 0.00 | 0.00 | 36 | 1013.7 |
| 20260503173152 | 14 | 273 | 14.5 | 22.5 | 0.00 | 0.00 | 0.00 | 39 | 1013.1 |
| 20260503172649 | 13 | 245 | 9.7 | 12.9 | 0.00 | 0.00 | 0.00 | 37 | 1013.6 |
| 20260503172147 | 14 | 228 | 14.5 | 20.9 | 0.00 | 0.00 | 0.00 | 36 | 1013.4 |
| 20260503171643 | 13 | 191 | 8.0 | 9.7 | 0.00 | 0.00 | 0.00 | 34 | 1013.7 |
| 20260503171141 | 13 | 188 | 3.2 | 3.2 | 0.00 | 0.00 | 0.00 | 33 | 1013.8 |
| 20260503170637 | 13 | 192 | 14.5 | 16.1 | 0.00 | 0.00 | 0.00 | 37 | 1013.9 |
| 20260503170134 | 13 | 198 | 6.4 | 8.0 | 0.00 | 0.00 | 0.00 | 38 | 1014.0 |
| 20260503150526 | 10 | 157 | 4.8 | 4.8 | 0.00 | 0.00 | 0.00 | 47 | 1015.1 |
| 20260503131419 | 7 | 255 | 8.0 | 9.7 | 0.00 | 0.00 | 0.00 | 58 | 1015.7 |
| 20260503130915 | 7 | 200 | 8.0 | 11.3 | 0.00 | 0.00 | 0.00 | 56 | 1015.7 |
| 20260503130413 | 7 | 222 | 3.2 | 4.8 | 0.00 | 0.00 | 0.00 | 57 | 1015.8 |
| 20260503110817 | 5 | 205 | 4.8 | 8.0 | 0.00 | 0.00 | 0.00 | 64 | 1015.3 |
| 20260503110314 | 5 | 222 | 4.8 | 4.8 | 0.00 | 0.00 | 0.00 | 62 | 1015.3 |
| 20260503100240 | 3 | 208 | 1.6 | 1.6 | 0.00 | 0.00 | 0.00 | 66 | 1014.6 |
| 20260503090200 | 5 | 188 | 0.0 | 0.0 | 0.00 | 0.00 | 0.00 | 65 | 1014.2 |
| 20260503081630 | 5 | 206 | 0.0 | 1.6 | 0.00 | 0.00 | 0.00 | 61 | 1014.2 |
| 20260503081127 | 5 | 194 | 1.6 | 3.2 | 0.00 | 0.00 | 0.00 | 58 | 1014.0 |
| 20260503080622 | 5 | 272 | 3.2 | 8.0 | 0.00 | 0.00 | 0.00 | 58 | 1013.9 |
| 20260503080119 | 5 | 179 | 1.6 | 1.6 | 0.00 | 0.00 | 0.00 | 59 | 1014.2 |
| 20260503072556 | 4 | 203 | 3.2 | 3.2 | 0.00 | 0.00 | 0.00 | 61 | 1013.6 |
| 20260503072054 | 5 | 234 | 0.0 | 1.6 | 0.00 | 0.00 | 0.00 | 63 | 1013.6 |
| 20260503071550 | 5 | 216 | 3.2 | 3.2 | 0.00 | 0.00 | 0.00 | 59 | 1013.8 |
| 20260503071047 | 5 | 184 | 4.8 | 8.0 | 0.00 | 0.00 | 0.00 | 61 | 1013.6 |
| 20260503070543 | 5 | 174 | 4.8 | 9.7 | 0.00 | 0.00 | 0.00 | 66 | 1013.7 |
| 20260503054957 | 6 | 227 | 1.6 | 3.2 | 0.00 | 0.00 | 0.00 | 58 | 1013.4 |
| 20260503054453 | 6 | 217 | 3.2 | 3.2 | 0.00 | 0.00 | 0.00 | 58 | 1013.4 |
| 20260503053950 | 5 | 249 | 4.8 | 8.0 | 0.00 | 0.00 | 0.00 | 60 | 1013.6 |